Regional Weather Roundup
Issued by NWS Pendleton, OR

Home | Current Version | Previous Version | Text Only | Print | Product List | Glossary On
Versions: 1 2 3 4 5 6 7 8 9 10 11 12 13 14 15 16 17 18 19 20 21 22 23 24 25 26 27 28 29 30 31 32 33 34 35 36 37 38 39 40 41 42 43 44 45 46 47 48 49 50
321
ASUS46 KPDT 190210
RWRPDT
PENDLETON REGIONAL WEATHER ROUNDUP
NATIONAL WEATHER SERVICE PENDLETON OREGON
600 PM PST THU JAN 18 2018

NOTE: FAIR INDICATES FEW OR NO CLOUDS BELOW 12,000 FEET WITH NO
SIGNIFICANT WEATHER AND/OR OBSTRUCTIONS TO VISIBILITY.

# INDICATES UNOFFICIAL STATION AND DATA

WAZ520-190310-
EAST SLOPES OF WASHINGTON CASCADES

CITY            SKY/WX      TMP DP  RH  WIND    PRES   REMARKS
#BULLFROG       N/A         35  35  100 S1      N/A
#CLE ELUM HS    N/A         37  34  89  CALM    29.73R
#EASTON DOT     N/A         32  32  100 CALM    N/A
#ELK HTS DOT    N/A         37  37  100 CALM    N/A
#GLENWOOD       N/A         36  34  92  S2      29.82
#NELSON 3SW     N/A         32  31  96  CALM    30.01S
#NILE           N/A         36  34  92  CALM    29.05S
#TEANAWAY 4NE   N/A         36  36  100 CALM    N/A
#TROUT LAKE 1NE N/A         35  34  96  CALM    29.83F
#TROUT LAKE 1E  N/A         34  33  96  CALM    29.83F
$$

WAZ521-190310-
SIMCOE HIGHLANDS

CITY            SKY/WX      TMP DP  RH  WIND    PRES   REMARKS
#BICKLETON HS   N/A         35  32  89  W15     29.42F WCI 25
#CENTERVILLE 1SWN/A         38  34  85  NW5     29.82F
#GOLDENDALE 1NE N/A         40  28  62  CALM    N/A
#GOLDENDALE 4W  N/A         39  29  67  CALM    29.86F
#GOODNOE HILLS  N/A         41  36  82  W12     29.73F WCI 34
#LYLE 6NE       N/A         37  36  96  CALM    29.85F
#PITT 4SE       N/A         34  33  96  CALM    29.87F
$$

WAZ026-190310-
KITTITAS VALLEY

CITY            SKY/WX      TMP DP  RH  WIND    PRES   REMARKS
ELLENSBURG AP   CLOUDY      44  34  68  E5      29.74S
#ELLENSBURG CWU N/A         44  36  73  CALM    29.72S
#ELLENSBURG 3NE N/A         42  36  79  CALM    27.83S
#ELLENSBURG 1E  N/A         43  36  76  CALM    29.83S
#KITTITAS 3S    N/A         43  36  76  S3      29.76F
#MANASTASH RDG  N/A         39  38  96  CALM    N/A
#ROCKY CYN DOT  N/A         40  35  82  W6      N/A
#RYEGRASS DOT   N/A         39  30  70  CALM    N/A
$$

WAZ027-190310-
YAKIMA VALLEY

CITY            SKY/WX      TMP DP  RH  WIND    PRES   REMARKS
SUNNYSIDE AP    LGT RAIN    44  37  76  CALM    29.81R
YAKIMA AIRPORT  CLOUDY      47  36  65  S13     29.77S WCI 41
YAKIMA-VAGABOND MOCLDY      44  34  68  S17     29.75S WCI 36
#DONALD 2NE     N/A         45  25  45  CALM    28.64S
#GRANDVIEW      N/A         45  36  70  SW2     29.83S
#MABTON         N/A         47  40  76  S10     29.81R
#MOXEE 2E       N/A         44  N/A N/A E3      29.77R
#NACHES 2SW     N/A         42  38  86  CALM    29.75S
#OUTLOOK DOT    N/A         47  37  68  CALM    29.77S
#PARKER DOT     N/A         45  36  70  NE1     29.79R
#TERRACE HTS    N/A         44  37  76  CALM    29.78S
#TOPPENISH      N/A         47  37  68  CALM    29.73S
#I82 S UMTANUM RN/A         41  29  62  S6      N/A
#UNION GAP DOT  N/A         45  35  68  SW8     29.82S
#W YAKIMA       N/A         43  36  76  SW2     29.79F
#WHITE SWAN 5E  N/A         44  36  73  CALM    29.81S
#WILEY CITY 3W  N/A         43  33  67  S7      29.72F
#ZILLAH DOT     N/A         46  37  71  SW1     N/A
$$

WAZ028-190310-
LOWER COLUMBIA BASIN...WASHINGTON

CITY            SKY/WX      TMP DP  RH  WIND    PRES   REMARKS
PASCO           PTCLDY      42  36  79  SE10    29.82S
PROSSER AWOS    N/A         46  39  76  SW3     29.85R
RICHLAND AWOS   PTCLDY      45  37  73  E8      29.82R
#BENTON CITY    N/A         42  37  82  CALM    29.72S
#CONNELL 5N     N/A         37  35  92  S1      29.82F
#CONNELL 5NW    N/A         37  35  92  S1      29.77S
#ELTOPIA 6NW    N/A         40  38  92  CALM    28.77F
#KAHLOTUS       N/A         41  37  86  W15     29.81F WCI 33
#KENNEWICK 3S   N/A         42  36  79  S6      29.82S
#PATERSON       N/A         43  39  86  E1      29.83R
#PROSSER DOT    N/A         47  38  71  CALM    29.83R
#SAGEMOOR 2W    N/A         40  36  85  S6      29.69F
#TOUCHET 2S     N/A         46  39  76  S13     29.79F WCI 40
#WEST PASCO     N/A         42  37  82  CALM    29.79R
$$

WAZ029-190310-
FOOTHILLS OF THE BLUES...WASHINGTON

CITY            SKY/WX      TMP DP  RH  WIND    PRES   REMARKS
WALLA WALLA AP  LGT RAIN    45  36  70  S13     29.81R WCI 39
#CLYDE 6NW      N/A         41  37  86  S12     29.82R WCI 34
#DELANEY DOT    N/A         44  35  70  E2      29.83S
#LOWDEN 2SE     N/A         46  40  79  SE5     29.78S
#PLEASANT VIEW 1N/A         37  36  96  S7      29.85S
#PRESCOTT       N/A         44  38  79  CALM    29.82R
#WHITMAN COLLEGEN/A         44  38  79  SE8     29.87S
#WAITSBURG 5S   N/A         42  36  79  SE7     29.91R
#WAITSBURG 6SSE N/A         42  34  73  SE3     29.65R
#WAITSBURG 8N   N/A          0  N/A N/A S5      29.56R
#WALLA WALLA 5E N/A         44  37  76  W6      N/A
#WHITMAN MISSIONN/A         45  40  82  CALM    29.85R
$$

WAZ030-190310-
BLUE MOUNTAINS...WASHINGTON

CITY            SKY/WX      TMP DP  RH  WIND    PRES   REMARKS
#DIXIE 5SE      N/A         37  32  82  SE7     29.70S
$$

ORZ009-041-WAZ024-190310-
COLUMBIA RIVER GORGE

CITY            SKY/WX      TMP DP  RH  WIND    PRES   REMARKS
HOOD RIVER AP   CLOUDY      37  36  96  CALM    29.85F
THE DALLES AP   PTCLDY      43  37  79  W3      29.85F
#ARLINGTON AIRPON/A         41  39  93  W7      29.86R
#ARLINGTON HS   N/A         44  39  82  N2      29.77R
#CELILO DOT     N/A         45  34  65  SW3     N/A
#LYLE           N/A         42  39  89  CALM    29.87F
#MARYHILL       N/A         42  37  82  N12     N/A    WCI 35
#MURDOCK        N/A         42  39  89  N3      29.81F
#RUFUS DOT      N/A         47  N/A N/A W6      N/A
#SMITHVILLE     N/A         43  39  86  NW9     29.73F

$$

ORZ510-190310-
NORTH CENTRAL OREGON

CITY            SKY/WX      TMP DP  RH  WIND    PRES   REMARKS
#ANTELOPE       N/A         36  33  89  CALM    29.69R
#CHENOWITH 1W   N/A         35  35  100 NW12    N/A    WCI 27
#COW CYN RST AREN/A         37  N/A N/A SW8     N/A
#DUFUR          N/A         39  37  92  CALM    29.81F
#DUFUR 9E       N/A         37  36  96  W3      29.90S
#GRASS VALLEY 1SN/A         39  37  92  W3      29.84R
#KENT DOT       N/A         36  31  82  W6      N/A
#MAUPIN SCHOOL  N/A         43  35  73  SW6     29.91R
#SHANIKO 5WSW   N/A         33  -47  2  NW7     N/A
#SHANIKO 4NW    N/A         33  31  92  W9      29.79S
#TYGH VALLEY 2NEN/A         43  36  76  CALM    29.85R
#WAPANITIA AIRPON/A         39  33  79  W8      29.88S
#WASCO DOT      N/A         42  39  89  W6      N/A
#WASCO 5NE      N/A         41  34  76  SW2     29.85R
$$

ORZ511-190310-
CENTRAL OREGON

CITY            SKY/WX      TMP DP  RH  WIND    PRES   REMARKS
BEND AIRPORT    PTCLDY      36  34  92  E7      29.81S
PRINEVILLE AP   CLOUDY      36  34  92  CALM    29.82S
REDMOND AIRPORT CLOUDY      37  33  85  NW7     29.81R
#ASHWOOD SCHOOL N/A         40  36  85  NW1     29.80R
#BEND 1SW       N/A         35  32  89  W1      N/A
#BEND-AWBREY    N/A         36  33  89  CALM    29.80R
#BEND-KIM LN    N/A         35  33  92  CALM    29.76R
#CULVER         N/A         38  32  79  SW3     29.67R
#CULVER 8W      N/A         38  29  70  CALM    29.85R
#LAKE BILLY CHINN/A         39  N/A N/A W1      29.95R
#MADRAS 4S      N/A         40   4  22  SW10    29.95R
#POWELL BUTTE   N/A         36  31  82  W2      29.78S
#PRINEVILLE     N/A         37  35  92  CALM    29.88F
#PRINEVILLE 3N  N/A         39  35  85  W1      29.80R
#WARM SPRINGS   N/A         43  34  70  CALM    29.71R

$$


ORZ509-190310-
EAST SLOPES OF OREGON CASCADES

CITY            SKY/WX      TMP DP  RH  WIND    PRES   REMARKS
SISTERS AWOS    N/A         36  32  85  W13     29.81R WCI 27
#BLUE BOX PASS  N/A         29  N/A N/A NW2     N/A
#CAMP SHERMAN   N/A         35  32  89  CALM    29.94R
#LA PINE DOT    N/A         35  32  89  CALM    N/A
#LA PINE 4NW    N/A         33  30  89  CALM    29.84F
#LAVA BUTTE DOT N/A         33  30  89  CALM    N/A
#SISTERS ODOT   N/A         35  31  85  SW6     N/A
#SISTERS 3N     N/A         34  28  78  CALM    29.85S
#SUNRIVER       N/A         34  31  89  SW1     29.82S
#TUMALO 3W      N/A         34  32  92  CALM    29.68R
#WANOGA BUTTE D N/A         26  26  100 W6      N/A

$$

ORZ044-190310-
LOWER COLUMBIA BASIN...OREGON

CITY            SKY/WX      TMP DP  RH  WIND    PRES   REMARKS
HERMISTON       MOCLDY      43  39  86  SE8     29.81S
#BOARDMAN SCHOOLN/A         43  40  89  CALM    29.83R
#BOARDMAN 8SW   N/A         44  41  89  W6      29.85R
#ECHO 8SW       N/A         44  44  100 SE1     29.82R
#I-84 EX 198 DOTN/A         42  37  82  NE16    N/A    WCI 34
#IONE SCHOOL    N/A         44  28  53  SW12    29.86R WCI 38
#UMATILLA       N/A         42  36  79  CALM    29.76S
$$

ORZ507-190310-
NORTHERN FOOTHILLS OF THE BLUES

CITY            SKY/WX      TMP DP  RH  WIND    PRES   REMARKS
PENDLETON AIRPT CLOUDY      40  36  85  S6      29.80S
#ADAMS 3WNW     N/A         39  36  89  CALM    29.83S
#ATHENA         N/A         40  36  85  SE2     29.85S
#CAYUSE         N/A         42  37  82  NE1     29.82S
#HELIX SCHOOL   N/A         39  37  92  S13     29.82S WCI 31
#HELIX 3N       N/A         38  36  92  S15     29.82F WCI 29
#HOLDMAN 6E     N/A         38  38  100 E5      29.62F
#M-F GROVE ELEM N/A         44  35  70  CALM    29.80R
#M-FREEWATER 5SEN/A         42  37  82  E10     29.82S
#PENDLETON DNTN N/A         41  38  89  CALM    N/A
#PDT AQUATIC CTRN/A         41  38  89  CALM    29.82S
#PDT SUNRIDGE   N/A         40  38  92  CALM    29.84S
#PENDLETON 6SE  N/A         42  37  82  SE10    29.78S
#PENDLETON 7NW  N/A         41  36  82  S8      N/A
#PILOT ROCK 1S  N/A         40  33  76  CALM    29.83R
#PILOT ROCK     N/A         40  36  85  CALM    29.82F
#TUTUILLA       N/A         39  35  85  CALM    29.86R
#UMAPINE 2E     N/A         45  40  82  S5      29.80R

$$

ORZ508-190310-
SOUTHERN FOOTHILLS OF THE BLUES

CITY            SKY/WX      TMP DP  RH  WIND    PRES   REMARKS
LEXINGTON       LGT MXD PCP 43  43  100 SW10    29.84R
#AJAX           N/A         38  31  76  N2      29.98S
#CONDON 5W      N/A         32  30  92  W7      29.78R
#FOSSIL SCHOOL  N/A         36  34  92  NW2     29.77R
#HEPPNER EOC    N/A         41  37  86  SE3     29.75R
#HEPPNER 4NE    N/A         38  35  89  S3      29.80R
#LEXINGTON 2SE  N/A         44  39  82  CALM    29.76R
#MIKKALO        N/A         41  38  89  NW2     29.94R
#OLEX 4N        N/A         41  39  93  W7      29.83R
#RUGGS 5NE      N/A         38  37  96  NE1     29.94S
#RUGGS 2SW      N/A         39  36  89  SW2     29.82S

$$

ORZ502-503-190310-
BLUE MOUNTAINS

CITY            SKY/WX      TMP DP  RH  WIND    PRES   REMARKS
MEACHAM         CLOUDY      33  31  92  CALM    29.75F FOG
#BATTLE MTN DOT N/A         32  31  96  CALM    N/A
#GRANITE        N/A         32  28  85  CALM    29.41S
#HARDMAN 10S    N/A         32  31  96  CALM    29.90F
#LADD CYN SMT   N/A         34  33  96  CALM    N/A
#LADD CREEK ODOTN/A         35  34  96  SW1     N/A
#LONG CREEK HS  N/A         38  36  92  W9      29.76F
#N POWDER DOT   N/A         37  36  96  N8      N/A
#PIKES PEAK     N/A         34  33  96  S12     27.99S WCI 25
#SUMMERVILLE 5NWN/A         32  31  96  CALM    27.75F
#TOLLGATE       N/A         29  28  96  CALM    29.84R
#TROY SCHOOL    N/A         38  36  92  CALM    29.73R
#UKIAH          N/A         32  30  92  NW3     29.69F
#WESTON 4E      N/A         34  32  92  E7      29.80R
$$

ORZ505-190310-
JOHN DAY BASIN

CITY            SKY/WX      TMP DP  RH  WIND    PRES   REMARKS
JOHN DAY        MOCLDY      37  36  96  E6      29.80F
#ANTELOPE 9ESE  N/A         41  37  86  W2      N/A
#MITCHELL 8NW   N/A         35  33  92  SW1     29.85F
#MONUMENT HS    N/A         39  36  89  W1      29.76F
#MT. VERNON 5SE N/A         35  33  92  CALM    29.73F
#SPRAY SCHOOL   N/A         42  N/A N/A CALM    N/A
#WINLOCK        N/A         48  47  96  CALM    29.76F
$$

ORZ506-190310-
OCHOCO AND JOHN DAY HIGHLANDS

CITY            SKY/WX      TMP DP  RH  WIND    PRES   REMARKS
#HORSE RIDGE DO N/A         35  28  75  NW8     N/A
#PAULINA ODOT   N/A         36  32  85  SW6     N/A
#PINE MTN OBS   N/A         26  25  96  CALM    N/A
#PRAIRIE CITY   N/A         34  29  82  CALM    29.96F
#SENECA         N/A         33  N/A N/A N1      N/A
#SENECA 9NW     N/A         32  31  96  CALM    29.80F
$$

ORZ049-190310-
GRANDE RONDE VALLEY

CITY            SKY/WX      TMP DP  RH  WIND    PRES   REMARKS
LA GRANDE       CLOUDY      36  34  92  N3      29.80F
#COVE SCHOOL    N/A         34  32  92  CALM    29.86R
#COVE 6NW       N/A         36  34  92  CALM    29.83F
#ELGIN 3N       N/A         32  28  85  CALM    29.80F
#ELGIN 1E       N/A         34  29  82  CALM    N/A
#IMBLER SCHOOL  N/A         34  32  92  CALM    29.80S
#ISLAND CITY 4N N/A         44  42  93  S1      29.86S
#LADD CYN DOT   N/A         36  36  100 CALM    N/A
#UNION 1S       N/A         36  34  92  CALM    29.85R
$$

ORZ050-190310-
WALLOWA COUNTY

CITY            SKY/WX      TMP DP  RH  WIND    PRES   REMARKS
JOSEPH AIRPORT  LGT SNOW    32  32  100 CALM    29.79S
#ENTERPRISE HS  N/A         33  31  92  CALM    29.70S
#IMNAHA SCHOOL  N/A         42  40  93  NW2     29.83S
#IMNAHA 10S     N/A         36  34  92  CALM    29.80F
#JOSEPH         N/A         33  30  89  CALM    30.00F
#JOSEPH 3N      N/A         32  28  85  CALM    29.84F
#JOSEPH 3W      N/A         32  32  100 CALM    29.64S
#LOSTINE        N/A         32  30  92  CALM    29.67S
#LOSTINE 3SE    N/A         32  31  96  CALM    29.85S
#MT HOWARD 8000 N/A         24  22  92  SW6     29.68S
#PROMISE 1S     N/A         32  31  96  CALM    29.94
#WALLOWA LAKE   N/A         32  31  96  CALM    29.78F
#WALLOWA SCHOOL N/A         32  31  96  CALM    29.80S



$$



USA.gov is the U.S. government's official web portal to all federal, state and local government web resources and services.